Data supplied by UK-AIR on 14/3/2017
All Data GMT hour ending 
Status: R =Ratified P=Provisional,P*=As supplied
,,Fort William,,,,,,,,,,,,,,,,,,,,,,,
Date,time,"Nitric oxide",status,unit,"Nitrogen dioxide",status,unit,"Nitrogen oxides as nitrogen dioxide",status,unit,"Ozone",status,unit
 
01-01-2016,01:00,0.55879,R,ugm-3,3.36281,R,ugm-3,4.21961,R,ugm-3,70.58126,R,ugm-3
01-01-2016,02:00,0.65234,R,ugm-3,1.71806,R,ugm-3,2.71830,R,ugm-3,73.17567,R,ugm-3
01-01-2016,03:00,0.41909,R,ugm-3,1.34258,R,ugm-3,1.98518,R,ugm-3,76.43531,R,ugm-3
01-01-2016,04:00,0.52387,R,ugm-3,1.77145,R,ugm-3,2.57470,R,ugm-3,74.24004,R,ugm-3
01-01-2016,05:00,0.69880,R,ugm-3,2.46904,R,ugm-3,3.54052,R,ugm-3,67.35488,R,ugm-3
01-01-2016,06:00,0.83881,R,ugm-3,2.46904,R,ugm-3,3.75519,R,ugm-3,67.15531,R,ugm-3
01-01-2016,07:00,0.55879,R,ugm-3,1.93258,R,ugm-3,2.78938,R,ugm-3,67.30498,R,ugm-3
01-01-2016,08:00,8.00455,R,ugm-3,14.87112,R,ugm-3,27.14459,R,ugm-3,66.25724,R,ugm-3
01-01-2016,09:00,9.43770,R,ugm-3,9.07959,R,ugm-3,23.55053,R,ugm-3,73.29208,R,ugm-3
01-01-2016,10:00,0.48894,R,ugm-3,1.66435,R,ugm-3,2.41405,R,ugm-3,70.84735,R,ugm-3
01-01-2016,11:00,1.81763,R,ugm-3,6.43987,R,ugm-3,9.22686,R,ugm-3,69.15101,R,ugm-3
01-01-2016,12:00,1.01343,R,ugm-3,3.32775,R,ugm-3,4.88166,R,ugm-3,71.74542,R,ugm-3
01-01-2016,13:00,1.04898,R,ugm-3,3.21969,R,ugm-3,4.82811,R,ugm-3,73.64133,R,ugm-3
01-01-2016,14:00,0.97913,R,ugm-3,3.16567,R,ugm-3,4.66698,R,ugm-3,70.24864,R,ugm-3
01-01-2016,15:00,2.09734,R,ugm-3,5.74276,R,ugm-3,8.95863,R,ugm-3,70.19875,R,ugm-3
01-01-2016,16:00,1.08390,R,ugm-3,4.18551,R,ugm-3,5.84747,R,ugm-3,70.04907,R,ugm-3
01-01-2016,17:00,0.87405,R,ugm-3,4.13196,R,ugm-3,5.47214,R,ugm-3,69.50025,R,ugm-3
01-01-2016,18:00,0.69849,R,ugm-3,3.91823,R,ugm-3,4.98923,R,ugm-3,68.30283,R,ugm-3
01-01-2016,19:00,0.90897,R,ugm-3,3.75615,R,ugm-3,5.14988,R,ugm-3,69.15101,R,ugm-3
01-01-2016,20:00,0.80389,R,ugm-3,4.13196,R,ugm-3,5.36456,R,ugm-3,71.24649,R,ugm-3
01-01-2016,21:00,0.27940,R,ugm-3,3.43437,R,ugm-3,3.86277,R,ugm-3,69.20090,R,ugm-3
01-01-2016,22:00,0.31432,R,ugm-3,3.59550,R,ugm-3,4.07745,R,ugm-3,70.64778,R,ugm-3
01-01-2016,23:00,0.20955,R,ugm-3,3.11212,R,ugm-3,3.43342,R,ugm-3,69.99918,R,ugm-3
01-01-2016,24:00,0.45433,R,ugm-3,3.32679,R,ugm-3,4.02342,R,ugm-3,68.70197,R,ugm-3
02-01-2016,01:00,0.55879,R,ugm-3,3.36345,R,ugm-3,4.22025,R,ugm-3,71.24649,R,ugm-3
02-01-2016,02:00,0.94358,R,ugm-3,2.79129,R,ugm-3,4.23810,R,ugm-3,72.84305,R,ugm-3
02-01-2016,03:00,0.83912,R,ugm-3,3.27324,R,ugm-3,4.55988,R,ugm-3,72.94284,R,ugm-3
02-01-2016,04:00,0.66356,R,ugm-3,2.89935,R,ugm-3,3.91680,R,ugm-3,73.24219,R,ugm-3
02-01-2016,05:00,1.11883,R,ugm-3,4.13148,R,ugm-3,5.84699,R,ugm-3,72.49380,R,ugm-3
02-01-2016,06:00,1.18868,R,ugm-3,4.02486,R,ugm-3,5.84747,R,ugm-3,68.00348,R,ugm-3
02-01-2016,07:00,1.78270,R,ugm-3,5.52808,R,ugm-3,8.26152,R,ugm-3,60.22025,R,ugm-3
02-01-2016,08:00,3.00599,R,ugm-3,8.96341,R,ugm-3,13.57253,R,ugm-3,60.86885,R,ugm-3
02-01-2016,09:00,1.04898,R,ugm-3,4.88261,R,ugm-3,6.49103,R,ugm-3,56.97724,R,ugm-3
02-01-2016,10:00,1.95764,R,ugm-3,8.37101,R,ugm-3,11.37268,R,ugm-3,49.89250,R,ugm-3
02-01-2016,11:00,3.28539,R,ugm-3,11.10971,R,ugm-3,16.14724,R,ugm-3,47.19831,R,ugm-3
02-01-2016,12:00,2.20242,R,ugm-3,8.53214,R,ugm-3,11.90914,R,ugm-3,46.54970,R,ugm-3
02-01-2016,13:00,2.13257,R,ugm-3,6.92277,R,ugm-3,10.19267,R,ugm-3,46.44992,R,ugm-3
02-01-2016,14:00,2.37704,R,ugm-3,8.26487,R,ugm-3,11.90962,R,ugm-3,46.10067,R,ugm-3
02-01-2016,15:00,2.86630,R,ugm-3,9.17761,R,ugm-3,13.57253,R,ugm-3,42.55830,R,ugm-3
02-01-2016,16:00,4.19467,R,ugm-3,12.71956,R,ugm-3,19.15130,R,ugm-3,38.56690,R,ugm-3
02-01-2016,17:00,3.28601,R,ugm-3,13.30861,R,ugm-3,18.34709,R,ugm-3,38.76647,R,ugm-3
02-01-2016,18:00,8.87859,R,ugm-3,22.22182,R,ugm-3,35.83547,R,ugm-3,33.32819,R,ugm-3
02-01-2016,19:00,3.81019,R,ugm-3,12.50440,R,ugm-3,18.34661,R,ugm-3,35.27400,R,ugm-3
02-01-2016,20:00,16.35928,R,ugm-3,34.62390,R,ugm-3,59.70777,R,ugm-3,20.10668,R,ugm-3
02-01-2016,21:00,9.15830,R,ugm-3,24.68990,R,ugm-3,38.73243,R,ugm-3,37.07013,R,ugm-3
02-01-2016,22:00,6.32693,R,ugm-3,14.97583,R,ugm-3,24.67699,R,ugm-3,39.66454,R,ugm-3
02-01-2016,23:00,4.01974,R,ugm-3,9.50082,R,ugm-3,15.66433,R,ugm-3,42.70798,R,ugm-3
02-01-2016,24:00,3.07584,R,ugm-3,8.42695,R,ugm-3,13.14318,R,ugm-3,42.10927,R,ugm-3
03-01-2016,01:00,3.40222,R,ugm-3,8.80260,R,ugm-3,14.01926,R,ugm-3,40.44619,R,ugm-3
03-01-2016,02:00,3.07584,R,ugm-3,8.80228,R,ugm-3,13.51851,R,ugm-3,37.65221,R,ugm-3
03-01-2016,03:00,3.88004,R,ugm-3,10.41261,R,ugm-3,16.36192,R,ugm-3,36.57120,R,ugm-3
03-01-2016,04:00,2.90122,R,ugm-3,8.53358,R,ugm-3,12.98205,R,ugm-3,44.25465,R,ugm-3
03-01-2016,05:00,1.60808,R,ugm-3,6.76117,R,ugm-3,9.22686,R,ugm-3,41.56045,R,ugm-3
03-01-2016,06:00,2.06241,R,ugm-3,7.94213,R,ugm-3,11.10445,R,ugm-3,37.36948,R,ugm-3
03-01-2016,07:00,1.99256,R,ugm-3,7.40568,R,ugm-3,10.46090,R,ugm-3,39.31529,R,ugm-3
03-01-2016,08:00,2.37704,R,ugm-3,7.67438,R,ugm-3,11.31913,R,ugm-3,41.41078,R,ugm-3
03-01-2016,09:00,2.58628,R,ugm-3,8.31938,R,ugm-3,12.28494,R,ugm-3,43.35658,R,ugm-3
03-01-2016,10:00,1.71254,R,ugm-3,7.72746,R,ugm-3,10.35332,R,ugm-3,30.63400,R,ugm-3
03-01-2016,11:00,2.06210,R,ugm-3,9.33778,R,ugm-3,12.49962,R,ugm-3,30.48432,R,ugm-3
03-01-2016,12:00,1.08359,R,ugm-3,6.60004,R,ugm-3,8.26152,R,ugm-3,34.72518,R,ugm-3
03-01-2016,13:00,1.11883,R,ugm-3,6.97537,R,ugm-3,8.69088,R,ugm-3,33.32819,R,ugm-3
03-01-2016,14:00,1.92240,R,ugm-3,8.53214,R,ugm-3,11.47978,R,ugm-3,31.28260,R,ugm-3
03-01-2016,15:00,2.20242,R,ugm-3,10.41022,R,ugm-3,13.78721,R,ugm-3,29.53636,R,ugm-3
03-01-2016,16:00,1.39822,R,ugm-3,8.04876,R,ugm-3,10.19267,R,ugm-3,30.58410,R,ugm-3
03-01-2016,17:00,2.06241,R,ugm-3,10.73152,R,ugm-3,13.89383,R,ugm-3,25.54496,R,ugm-3
03-01-2016,18:00,1.95733,R,ugm-3,11.00022,R,ugm-3,14.00141,R,ugm-3,26.54281,R,ugm-3
03-01-2016,19:00,1.95764,R,ugm-3,9.28280,R,ugm-3,12.28447,R,ugm-3,43.40648,R,ugm-3
03-01-2016,20:00,1.36330,R,ugm-3,7.61988,R,ugm-3,9.71024,R,ugm-3,68.55230,R,ugm-3
03-01-2016,21:00,1.11883,R,ugm-3,5.68825,R,ugm-3,7.40377,R,ugm-3,71.79531,R,ugm-3
03-01-2016,22:00,0.97913,R,ugm-3,4.77503,R,ugm-3,6.27635,R,ugm-3,73.59144,R,ugm-3
03-01-2016,23:00,1.08390,R,ugm-3,4.72148,R,ugm-3,6.38345,R,ugm-3,73.04262,R,ugm-3
03-01-2016,24:00,0.97913,R,ugm-3,4.02390,R,ugm-3,5.52521,R,ugm-3,70.69767,R,ugm-3
04-01-2016,01:00,1.44479,R,ugm-3,4.78826,R,ugm-3,7.00358,R,ugm-3,66.39029,R,ugm-3
04-01-2016,02:00,1.67793,R,ugm-3,4.87735,R,ugm-3,7.45014,R,ugm-3,59.93752,R,ugm-3
04-01-2016,03:00,0.90928,R,ugm-3,4.66220,R,ugm-3,6.05641,R,ugm-3,59.62154,R,ugm-3
04-01-2016,04:00,0.87436,R,ugm-3,4.55558,R,ugm-3,5.89624,R,ugm-3,59.22240,R,ugm-3
04-01-2016,05:00,1.53792,R,ugm-3,5.30623,R,ugm-3,7.66434,R,ugm-3,60.41982,R,ugm-3
04-01-2016,06:00,1.60808,R,ugm-3,5.62753,R,ugm-3,8.09322,R,ugm-3,57.92519,R,ugm-3
04-01-2016,07:00,2.51705,R,ugm-3,7.07482,R,ugm-3,10.93424,R,ugm-3,55.53035,R,ugm-3
04-01-2016,08:00,1.85255,R,ugm-3,7.82547,R,ugm-3,10.66601,R,ugm-3,43.75572,R,ugm-3
04-01-2016,09:00,2.76183,R,ugm-3,9.96891,R,ugm-3,14.20366,R,ugm-3,36.82067,R,ugm-3
04-01-2016,10:00,3.53048,R,ugm-3,10.13003,R,ugm-3,15.54337,R,ugm-3,36.97034,R,ugm-3
04-01-2016,11:00,2.37673,R,ugm-3,8.62968,R,ugm-3,12.27395,R,ugm-3,38.46712,R,ugm-3
04-01-2016,12:00,3.21616,R,ugm-3,9.05760,R,ugm-3,13.98898,R,ugm-3,37.12002,R,ugm-3
04-01-2016,13:00,6.57171,R,ugm-3,11.57684,R,ugm-3,21.65333,R,ugm-3,41.21121,R,ugm-3
04-01-2016,14:00,3.35586,R,ugm-3,9.43293,R,ugm-3,14.57851,R,ugm-3,39.91400,R,ugm-3
04-01-2016,15:00,1.95733,R,ugm-3,8.79033,R,ugm-3,11.79152,R,ugm-3,38.91615,R,ugm-3
04-01-2016,16:00,2.02717,R,ugm-3,9.43341,R,ugm-3,12.54170,R,ugm-3,38.86626,R,ugm-3
04-01-2016,17:00,1.50300,R,ugm-3,8.14725,R,ugm-3,10.45181,R,ugm-3,41.51056,R,ugm-3
04-01-2016,18:00,1.32838,R,ugm-3,7.61079,R,ugm-3,9.64761,R,ugm-3,43.05723,R,ugm-3
04-01-2016,19:00,1.22360,R,ugm-3,7.07434,R,ugm-3,8.95050,R,ugm-3,43.70583,R,ugm-3
04-01-2016,20:00,0.90897,R,ugm-3,5.73511,R,ugm-3,7.12884,R,ugm-3,45.65164,R,ugm-3
04-01-2016,21:00,0.66356,R,ugm-3,4.98589,R,ugm-3,6.00334,R,ugm-3,47.49766,R,ugm-3
04-01-2016,22:00,0.83912,R,ugm-3,5.35930,R,ugm-3,6.64594,R,ugm-3,47.04863,R,ugm-3
04-01-2016,23:00,0.59372,R,ugm-3,4.55701,R,ugm-3,5.46736,R,ugm-3,48.59530,R,ugm-3
04-01-2016,24:00,0.34924,R,ugm-3,3.75233,R,ugm-3,4.28783,R,ugm-3,52.13766,R,ugm-3
05-01-2016,01:00,0.46566,R,ugm-3,3.71663,R,ugm-3,4.43063,R,ugm-3,56.07917,R,ugm-3
05-01-2016,02:00,0.90866,R,ugm-3,3.00167,R,ugm-3,4.39493,R,ugm-3,57.21007,R,ugm-3
05-01-2016,03:00,0.62864,R,ugm-3,3.37748,R,ugm-3,4.34138,R,ugm-3,58.32433,R,ugm-3
05-01-2016,04:00,0.41909,R,ugm-3,3.10973,R,ugm-3,3.75233,R,ugm-3,58.07487,R,ugm-3
05-01-2016,05:00,0.31432,R,ugm-3,2.94908,R,ugm-3,3.43103,R,ugm-3,59.72132,R,ugm-3
05-01-2016,06:00,0.27940,R,ugm-3,2.94908,R,ugm-3,3.37748,R,ugm-3,61.66713,R,ugm-3
05-01-2016,07:00,0.45402,R,ugm-3,3.21683,R,ugm-3,3.91298,R,ugm-3,60.22025,R,ugm-3
05-01-2016,08:00,0.59372,R,ugm-3,4.39493,R,ugm-3,5.30528,R,ugm-3,59.22240,R,ugm-3
05-01-2016,09:00,0.55879,R,ugm-3,4.66363,R,ugm-3,5.52043,R,ugm-3,59.62154,R,ugm-3
05-01-2016,10:00,0.52387,R,ugm-3,4.82428,R,ugm-3,5.62753,R,ugm-3,59.02283,R,ugm-3
05-01-2016,11:00,0.59372,R,ugm-3,4.39540,R,ugm-3,5.30575,R,ugm-3,58.32433,R,ugm-3
05-01-2016,12:00,0.55879,R,ugm-3,4.02008,R,ugm-3,4.87688,R,ugm-3,58.37423,R,ugm-3
05-01-2016,13:00,0.66356,R,ugm-3,4.82476,R,ugm-3,5.84221,R,ugm-3,57.47616,R,ugm-3
05-01-2016,14:00,0.69880,R,ugm-3,5.57446,R,ugm-3,6.64594,R,ugm-3,57.37638,R,ugm-3
05-01-2016,15:00,0.80420,R,ugm-3,6.53836,R,ugm-3,7.77144,R,ugm-3,57.27659,R,ugm-3
05-01-2016,16:00,0.76896,R,ugm-3,7.93257,R,ugm-3,9.11163,R,ugm-3,55.13121,R,ugm-3
05-01-2016,17:00,0.94421,R,ugm-3,9.59358,R,ugm-3,11.04134,R,ugm-3,52.93594,R,ugm-3
05-01-2016,18:00,1.18868,R,ugm-3,9.37938,R,ugm-3,11.20199,R,ugm-3,50.54110,R,ugm-3
05-01-2016,19:00,1.81763,R,ugm-3,7.39659,R,ugm-3,10.18358,R,ugm-3,51.08992,R,ugm-3
05-01-2016,20:00,1.78270,R,ugm-3,8.46807,R,ugm-3,11.20151,R,ugm-3,47.54755,R,ugm-3
05-01-2016,21:00,1.78239,R,ugm-3,8.30790,R,ugm-3,11.04086,R,ugm-3,44.60390,R,ugm-3
05-01-2016,22:00,2.06241,R,ugm-3,9.43388,R,ugm-3,12.59620,R,ugm-3,44.35443,R,ugm-3
05-01-2016,23:00,1.78270,R,ugm-3,7.98612,R,ugm-3,10.71956,R,ugm-3,42.10927,R,ugm-3
05-01-2016,24:00,2.86630,R,ugm-3,8.41500,R,ugm-3,12.80993,R,ugm-3,38.41723,R,ugm-3
06-01-2016,01:00,4.00467,R,ugm-3,10.22486,R,ugm-3,16.36526,R,ugm-3,40.04705,R,ugm-3
06-01-2016,02:00,2.89873,R,ugm-3,7.02509,R,ugm-3,11.46974,R,ugm-3,33.06210,R,ugm-3
06-01-2016,03:00,6.42609,R,ugm-3,15.82068,R,ugm-3,25.67388,R,ugm-3,25.29550,R,ugm-3
06-01-2016,04:00,5.97207,R,ugm-3,14.85534,R,ugm-3,24.01239,R,ugm-3,31.08303,R,ugm-3
06-01-2016,05:00,5.20374,R,ugm-3,12.81710,R,ugm-3,20.79605,R,ugm-3,30.33464,R,ugm-3
06-01-2016,06:00,9.08034,R,ugm-3,18.93279,R,ugm-3,32.85579,R,ugm-3,27.24131,R,ugm-3
06-01-2016,07:00,40.26783,R,ugm-3,29.69491,R,ugm-3,91.43806,R,ugm-3,29.48647,R,ugm-3
06-01-2016,08:00,16.58909,R,ugm-3,31.53808,R,ugm-3,56.97433,R,ugm-3,28.78797,R,ugm-3
06-01-2016,09:00,40.58215,R,ugm-3,53.76085,R,ugm-3,115.98595,R,ugm-3,42.15916,R,ugm-3
06-01-2016,10:00,9.39466,R,ugm-3,19.52280,R,ugm-3,33.92775,R,ugm-3,43.70583,R,ugm-3
06-01-2016,11:00,12.64263,R,ugm-3,28.10228,R,ugm-3,47.48738,R,ugm-3,52.38713,R,ugm-3
06-01-2016,12:00,7.50875,R,ugm-3,14.69613,R,ugm-3,26.20938,R,ugm-3,55.13121,R,ugm-3
06-01-2016,13:00,10.89641,R,ugm-3,22.09703,R,ugm-3,38.80463,R,ugm-3,56.07917,R,ugm-3
06-01-2016,14:00,4.22585,R,ugm-3,20.58711,R,ugm-3,27.06666,R,ugm-3,57.27659,R,ugm-3
06-01-2016,15:00,7.89291,R,ugm-3,10.19458,R,ugm-3,22.29688,R,ugm-3,58.17466,R,ugm-3
06-01-2016,16:00,6.35624,R,ugm-3,11.42528,R,ugm-3,21.17138,R,ugm-3,58.02498,R,ugm-3
06-01-2016,17:00,3.38767,R,ugm-3,10.93902,R,ugm-3,16.13337,R,ugm-3,53.98369,R,ugm-3
06-01-2016,18:00,2.51456,R,ugm-3,10.61581,R,ugm-3,14.47141,R,ugm-3,50.74067,R,ugm-3
06-01-2016,19:00,2.47963,R,ugm-3,9.70450,R,ugm-3,13.50655,R,ugm-3,47.59745,R,ugm-3
06-01-2016,20:00,2.09546,R,ugm-3,9.06095,R,ugm-3,12.27395,R,ugm-3,42.30884,R,ugm-3
06-01-2016,21:00,1.99069,R,ugm-3,9.70403,R,ugm-3,12.75638,R,ugm-3,41.51056,R,ugm-3
06-01-2016,22:00,2.65425,R,ugm-3,10.56226,R,ugm-3,14.63206,R,ugm-3,40.96174,R,ugm-3
06-01-2016,23:00,2.33994,R,ugm-3,10.61533,R,ugm-3,14.20318,R,ugm-3,37.96819,R,ugm-3
06-01-2016,24:00,2.40978,R,ugm-3,10.99066,R,ugm-3,14.68561,R,ugm-3,39.61465,R,ugm-3
07-01-2016,01:00,2.70082,R,ugm-3,10.00811,R,ugm-3,14.14931,R,ugm-3,43.50626,R,ugm-3
07-01-2016,02:00,2.20024,R,ugm-3,10.66888,R,ugm-3,14.04253,R,ugm-3,41.04490,R,ugm-3
07-01-2016,03:00,2.54948,R,ugm-3,10.02628,R,ugm-3,13.93543,R,ugm-3,55.72992,R,ugm-3
07-01-2016,04:00,1.95577,R,ugm-3,7.29236,R,ugm-3,10.29116,R,ugm-3,66.50670,R,ugm-3
07-01-2016,05:00,1.32713,R,ugm-3,4.87927,R,ugm-3,6.91417,R,ugm-3,66.30713,R,ugm-3
07-01-2016,06:00,1.11758,R,ugm-3,4.87879,R,ugm-3,6.59239,R,ugm-3,66.80606,R,ugm-3
07-01-2016,07:00,3.35274,R,ugm-3,7.40090,R,ugm-3,12.54170,R,ugm-3,73.74112,R,ugm-3
07-01-2016,08:00,1.29220,R,ugm-3,4.98637,R,ugm-3,6.96772,R,ugm-3,72.79316,R,ugm-3
07-01-2016,09:00,0.80326,R,ugm-3,4.77169,R,ugm-3,6.00334,R,ugm-3,69.45036,R,ugm-3
07-01-2016,10:00,7.57860,R,ugm-3,20.64592,R,ugm-3,32.26627,R,ugm-3,49.04433,R,ugm-3
07-01-2016,11:00,9.49944,R,ugm-3,24.07838,R,ugm-3,38.64398,R,ugm-3,40.96174,R,ugm-3
07-01-2016,12:00,12.29339,R,ugm-3,36.94568,R,ugm-3,55.79528,R,ugm-3,45.45207,R,ugm-3
07-01-2016,13:00,4.01631,R,ugm-3,13.61891,R,ugm-3,19.77716,R,ugm-3,47.09852,R,ugm-3
07-01-2016,14:00,3.49244,R,ugm-3,12.33228,R,ugm-3,17.68728,R,ugm-3,39.86411,R,ugm-3
07-01-2016,15:00,7.26428,R,ugm-3,28.20268,R,ugm-3,39.34108,R,ugm-3,38.76647,R,ugm-3
07-01-2016,16:00,8.66125,R,ugm-3,31.15176,R,ugm-3,44.43216,R,ugm-3,34.02669,R,ugm-3
07-01-2016,17:00,4.67987,R,ugm-3,20.69468,R,ugm-3,27.87038,R,ugm-3,46.20046,R,ugm-3
07-01-2016,18:00,4.81957,R,ugm-3,17.53284,R,ugm-3,24.92274,R,ugm-3,47.99659,R,ugm-3
07-01-2016,19:00,4.99419,R,ugm-3,23.05423,R,ugm-3,30.71188,R,ugm-3,56.42842,R,ugm-3
07-01-2016,20:00,6.70549,R,ugm-3,19.25075,R,ugm-3,29.53235,R,ugm-3,65.00993,R,ugm-3
07-01-2016,21:00,2.06054,R,ugm-3,8.47142,R,ugm-3,11.63087,R,ugm-3,71.19660,R,ugm-3
07-01-2016,22:00,1.39698,R,ugm-3,6.59430,R,ugm-3,8.73630,R,ugm-3,70.04907,R,ugm-3
07-01-2016,23:00,1.46683,R,ugm-3,6.05880,R,ugm-3,8.30790,R,ugm-3,70.54800,R,ugm-3
07-01-2016,24:00,1.22235,R,ugm-3,4.50346,R,ugm-3,6.37771,R,ugm-3,75.78671,R,ugm-3
08-01-2016,01:00,2.37486,R,ugm-3,8.36464,R,ugm-3,12.00604,R,ugm-3,67.98685,R,ugm-3
08-01-2016,02:00,1.25728,R,ugm-3,2.73488,R,ugm-3,4.66268,R,ugm-3,79.82800,R,ugm-3
08-01-2016,03:00,0.94296,R,ugm-3,3.05665,R,ugm-3,4.50250,R,ugm-3,75.53725,R,ugm-3
08-01-2016,04:00,5.37836,R,ugm-3,15.81877,R,ugm-3,24.06547,R,ugm-3,41.16131,R,ugm-3
08-01-2016,05:00,5.02911,R,ugm-3,14.63923,R,ugm-3,22.35043,R,ugm-3,29.33679,R,ugm-3
08-01-2016,06:00,11.83937,R,ugm-3,28.10180,R,ugm-3,46.25525,R,ugm-3,11.72474,R,ugm-3
08-01-2016,07:00,12.32831,R,ugm-3,31.80057,R,ugm-3,50.70372,R,ugm-3,5.73764,R,ugm-3
08-01-2016,08:00,20.60540,R,ugm-3,36.79602,R,ugm-3,68.39052,R,ugm-3,1.99570,R,ugm-3
08-01-2016,09:00,28.39354,R,ugm-3,37.50365,R,ugm-3,81.03980,R,ugm-3,5.43828,R,ugm-3
08-01-2016,10:00,23.78352,R,ugm-3,39.32004,R,ugm-3,75.78759,R,ugm-3,9.67915,R,ugm-3
08-01-2016,11:00,20.39585,R,ugm-3,39.74414,R,ugm-3,71.01734,R,ugm-3,9.62925,R,ugm-3
08-01-2016,12:00,18.19561,R,ugm-3,29.93254,R,ugm-3,57.83209,R,ugm-3,26.84217,R,ugm-3
08-01-2016,13:00,14.84287,R,ugm-3,26.28349,R,ugm-3,49.04224,R,ugm-3,23.24991,R,ugm-3
08-01-2016,14:00,20.57047,R,ugm-3,34.81324,R,ugm-3,66.35419,R,ugm-3,11.82452,R,ugm-3
08-01-2016,15:00,60.27951,R,ugm-3,50.62531,R,ugm-3,143.05261,R,ugm-3,4.04129,R,ugm-3
08-01-2016,16:00,67.33424,R,ugm-3,50.52729,R,ugm-3,153.77169,R,ugm-3,3.79183,R,ugm-3
08-01-2016,17:00,33.70205,R,ugm-3,49.03411,R,ugm-3,100.70986,R,ugm-3,2.89377,R,ugm-3
08-01-2016,18:00,56.05366,R,ugm-3,50.88732,R,ugm-3,136.83507,R,ugm-3,2.99355,R,ugm-3
08-01-2016,19:00,61.39710,R,ugm-3,47.08910,R,ugm-3,141.23000,R,ugm-3,4.24086,R,ugm-3
08-01-2016,20:00,35.48319,R,ugm-3,39.01404,R,ugm-3,93.42084,R,ugm-3,3.74194,R,ugm-3
08-01-2016,21:00,27.27596,R,ugm-3,38.03771,R,ugm-3,79.86026,R,ugm-3,5.48818,R,ugm-3
08-01-2016,22:00,14.35393,R,ugm-3,35.60884,R,ugm-3,57.61789,R,ugm-3,5.13893,R,ugm-3
08-01-2016,23:00,12.78233,R,ugm-3,35.06999,R,ugm-3,54.66929,R,ugm-3,4.39054,R,ugm-3
08-01-2016,24:00,16.03030,R,ugm-3,33.73459,R,ugm-3,58.31404,R,ugm-3,11.47528,R,ugm-3
09-01-2016,01:00,6.10013,R,ugm-3,26.87891,R,ugm-3,36.23231,R,ugm-3,7.51714,R,ugm-3
09-01-2016,02:00,7.96276,R,ugm-3,19.57396,R,ugm-3,31.78336,R,ugm-3,10.24459,R,ugm-3
09-01-2016,03:00,9.46451,R,ugm-3,23.11352,R,ugm-3,37.62557,R,ugm-3,8.23226,R,ugm-3
09-01-2016,04:00,9.01050,R,ugm-3,25.57825,R,ugm-3,39.39415,R,ugm-3,7.43398,R,ugm-3
09-01-2016,05:00,5.90222,R,ugm-3,18.71381,R,ugm-3,27.76376,R,ugm-3,13.02194,R,ugm-3
09-01-2016,06:00,5.79745,R,ugm-3,16.51587,R,ugm-3,25.40517,R,ugm-3,16.51442,R,ugm-3
09-01-2016,07:00,9.60421,R,ugm-3,18.87972,R,ugm-3,33.60597,R,ugm-3,13.27141,R,ugm-3
09-01-2016,08:00,14.07453,R,ugm-3,23.49506,R,ugm-3,45.07571,R,ugm-3,4.98925,R,ugm-3
09-01-2016,09:00,34.67993,R,ugm-3,34.83236,R,ugm-3,88.00751,R,ugm-3,1.44688,R,ugm-3
09-01-2016,10:00,41.45526,R,ugm-3,39.34395,R,ugm-3,102.90780,R,ugm-3,4.29076,R,ugm-3
09-01-2016,11:00,45.85574,R,ugm-3,44.54882,R,ugm-3,114.85997,R,ugm-3,6.28646,R,ugm-3
09-01-2016,12:00,42.25852,R,ugm-3,45.50842,R,ugm-3,110.30392,R,ugm-3,5.43828,R,ugm-3
09-01-2016,13:00,42.92209,R,ugm-3,48.29732,R,ugm-3,114.11027,R,ugm-3,9.28001,R,ugm-3
09-01-2016,14:00,31.71136,R,ugm-3,43.18951,R,ugm-3,91.81291,R,ugm-3,28.58840,R,ugm-3
09-01-2016,15:00,5.06404,R,ugm-3,21.12500,R,ugm-3,28.88975,R,ugm-3,43.25680,R,ugm-3
09-01-2016,16:00,4.36555,R,ugm-3,18.98013,R,ugm-3,25.67388,R,ugm-3,38.06798,R,ugm-3
09-01-2016,17:00,4.40047,R,ugm-3,18.38964,R,ugm-3,25.13694,R,ugm-3,54.73207,R,ugm-3
09-01-2016,18:00,1.15251,R,ugm-3,7.55916,R,ugm-3,9.32631,R,ugm-3,57.27659,R,ugm-3
09-01-2016,19:00,0.83819,R,ugm-3,5.62849,R,ugm-3,6.91369,R,ugm-3,57.22670,R,ugm-3
09-01-2016,20:00,0.76834,R,ugm-3,5.62897,R,ugm-3,6.80707,R,ugm-3,56.67788,R,ugm-3
09-01-2016,21:00,0.80326,R,ugm-3,6.21802,R,ugm-3,7.44967,R,ugm-3,54.28304,R,ugm-3
09-01-2016,22:00,0.69849,R,ugm-3,5.03896,R,ugm-3,6.10996,R,ugm-3,60.12046,R,ugm-3
09-01-2016,23:00,0.80326,R,ugm-3,7.34400,R,ugm-3,8.57565,R,ugm-3,50.64089,R,ugm-3
09-01-2016,24:00,1.74622,R,ugm-3,7.77431,R,ugm-3,10.45181,R,ugm-3,54.58240,R,ugm-3
10-01-2016,01:00,0.83819,R,ugm-3,4.36114,R,ugm-3,5.64634,R,ugm-3,53.95042,R,ugm-3
10-01-2016,02:00,1.36205,R,ugm-3,4.61104,R,ugm-3,6.69949,R,ugm-3,56.21222,R,ugm-3
10-01-2016,03:00,1.15251,R,ugm-3,4.50394,R,ugm-3,6.27109,R,ugm-3,55.53035,R,ugm-3
10-01-2016,04:00,1.88592,R,ugm-3,6.32703,R,ugm-3,9.21873,R,ugm-3,55.82971,R,ugm-3
10-01-2016,05:00,1.46683,R,ugm-3,5.14749,R,ugm-3,7.39659,R,ugm-3,63.71272,R,ugm-3
10-01-2016,06:00,1.11758,R,ugm-3,4.55797,R,ugm-3,6.27157,R,ugm-3,64.16176,R,ugm-3
10-01-2016,07:00,1.67637,R,ugm-3,5.79105,R,ugm-3,8.36145,R,ugm-3,63.41337,R,ugm-3
10-01-2016,08:00,5.34343,R,ugm-3,14.21083,R,ugm-3,22.40398,R,ugm-3,49.24390,R,ugm-3
10-01-2016,09:00,6.88011,R,ugm-3,21.28804,R,ugm-3,31.83739,R,ugm-3,38.21766,R,ugm-3
10-01-2016,10:00,5.69268,R,ugm-3,23.80537,R,ugm-3,32.53402,R,ugm-3,40.76217,R,ugm-3
10-01-2016,11:00,3.66706,R,ugm-3,11.74323,R,ugm-3,17.36598,R,ugm-3,53.38498,R,ugm-3
10-01-2016,12:00,3.66706,R,ugm-3,10.24192,R,ugm-3,15.86467,R,ugm-3,49.44347,R,ugm-3
10-01-2016,13:00,5.34343,R,ugm-3,12.76403,R,ugm-3,20.95718,R,ugm-3,38.41723,R,ugm-3
10-01-2016,14:00,17.84637,R,ugm-3,37.97125,R,ugm-3,65.33530,R,ugm-3,19.20861,R,ugm-3
10-01-2016,15:00,20.08153,R,ugm-3,47.30091,R,ugm-3,78.09216,R,ugm-3,18.01119,R,ugm-3
10-01-2016,16:00,15.75090,R,ugm-3,41.07763,R,ugm-3,65.22868,R,ugm-3,10.92646,R,ugm-3
10-01-2016,17:00,24.72648,R,ugm-3,49.71926,R,ugm-3,87.63266,R,ugm-3,33.22841,R,ugm-3
10-01-2016,18:00,8.10246,R,ugm-3,23.27321,R,ugm-3,35.69681,R,ugm-3,27.49077,R,ugm-3
10-01-2016,19:00,18.26546,R,ugm-3,40.27725,R,ugm-3,68.28390,R,ugm-3,6.38624,R,ugm-3
10-01-2016,20:00,14.52855,R,ugm-3,34.85866,R,ugm-3,57.13546,R,ugm-3,10.47743,R,ugm-3
10-01-2016,21:00,4.78464,R,ugm-3,17.53284,R,ugm-3,24.86919,R,ugm-3,19.80732,R,ugm-3
10-01-2016,22:00,4.61002,R,ugm-3,12.81662,R,ugm-3,19.88522,R,ugm-3,26.84217,R,ugm-3
10-01-2016,23:00,10.33762,R,ugm-3,19.57731,R,ugm-3,35.42811,R,ugm-3,21.60345,R,ugm-3
10-01-2016,24:00,14.42378,R,ugm-3,31.64231,R,ugm-3,53.75846,R,ugm-3,12.97205,R,ugm-3
11-01-2016,01:00,9.03378,R,ugm-3,22.49100,R,ugm-3,36.34260,R,ugm-3,13.50424,R,ugm-3
11-01-2016,02:00,14.38885,R,ugm-3,31.96935,R,ugm-3,54.03195,R,ugm-3,12.57291,R,ugm-3
11-01-2016,03:00,9.81376,R,ugm-3,24.09750,R,ugm-3,39.14505,R,ugm-3,14.86797,R,ugm-3
11-01-2016,04:00,24.48200,R,ugm-3,36.36045,R,ugm-3,73.89900,R,ugm-3,15.81592,R,ugm-3
11-01-2016,05:00,6.74041,R,ugm-3,18.52830,R,ugm-3,28.86345,R,ugm-3,20.90496,R,ugm-3
11-01-2016,06:00,11.17581,R,ugm-3,22.54455,R,ugm-3,39.68055,R,ugm-3,24.84647,R,ugm-3
11-01-2016,07:00,7.12458,R,ugm-3,19.01025,R,ugm-3,29.93445,R,ugm-3,39.46497,R,ugm-3
11-01-2016,08:00,2.51456,R,ugm-3,7.92540,R,ugm-3,11.78100,R,ugm-3,44.30454,R,ugm-3
11-01-2016,09:00,82.14219,R,ugm-3,25.06140,R,ugm-3,151.01100,R,ugm-3,41.16131,R,ugm-3
11-01-2016,10:00,86.26327,R,ugm-3,40.80510,R,ugm-3,173.07360,R,ugm-3,39.11572,R,ugm-3
11-01-2016,11:00,6.67056,R,ugm-3,19.92060,R,ugm-3,30.14865,R,ugm-3,39.56475,R,ugm-3
11-01-2016,12:00,8.55648,R,ugm-3,20.45610,R,ugm-3,33.57585,R,ugm-3,47.14841,R,ugm-3
11-01-2016,13:00,4.85449,R,ugm-3,13.54815,R,ugm-3,20.99160,R,ugm-3,46.49981,R,ugm-3
11-01-2016,14:00,7.15950,R,ugm-3,16.17210,R,ugm-3,27.14985,R,ugm-3,47.74712,R,ugm-3
11-01-2016,15:00,3.35274,R,ugm-3,9.58545,R,ugm-3,14.72625,R,ugm-3,49.04433,R,ugm-3
11-01-2016,16:00,4.33063,R,ugm-3,14.45850,R,ugm-3,21.09870,R,ugm-3,46.00089,R,ugm-3
11-01-2016,17:00,4.33063,R,ugm-3,15.63660,R,ugm-3,22.27680,R,ugm-3,41.66024,R,ugm-3
11-01-2016,18:00,3.70199,R,ugm-3,16.06500,R,ugm-3,21.74130,R,ugm-3,42.60820,R,ugm-3
11-01-2016,19:00,3.31782,R,ugm-3,11.94165,R,ugm-3,17.02890,R,ugm-3,43.70583,R,ugm-3
11-01-2016,20:00,8.34693,R,ugm-3,15.36885,R,ugm-3,28.16730,R,ugm-3,40.36303,R,ugm-3
11-01-2016,21:00,7.26428,R,ugm-3,19.81350,R,ugm-3,30.95190,R,ugm-3,34.87486,R,ugm-3
11-01-2016,22:00,3.70199,R,ugm-3,16.76115,R,ugm-3,22.43745,R,ugm-3,32.67959,R,ugm-3
11-01-2016,23:00,3.56229,R,ugm-3,11.78100,R,ugm-3,17.24310,R,ugm-3,36.62110,R,ugm-3
11-01-2016,24:00,2.65425,R,ugm-3,10.81710,R,ugm-3,14.88690,R,ugm-3,37.56905,R,ugm-3
12-01-2016,01:00,1.67637,R,ugm-3,7.85400,R,ugm-3,10.42440,R,ugm-3,44.23802,R,ugm-3
12-01-2016,02:00,0.69849,R,ugm-3,4.98015,R,ugm-3,6.05115,R,ugm-3,44.63716,R,ugm-3
12-01-2016,03:00,1.25728,R,ugm-3,7.65765,R,ugm-3,9.58545,R,ugm-3,39.76432,R,ugm-3
12-01-2016,04:00,0.27940,R,ugm-3,4.92660,R,ugm-3,5.35500,R,ugm-3,52.98584,R,ugm-3
12-01-2016,05:00,0.20955,R,ugm-3,2.73105,R,ugm-3,3.05235,R,ugm-3,54.38283,R,ugm-3
12-01-2016,06:00,0.76834,R,ugm-3,7.97895,R,ugm-3,9.15705,R,ugm-3,51.48906,R,ugm-3
12-01-2016,07:00,22.73578,R,ugm-3,23.18715,R,ugm-3,58.04820,R,ugm-3,31.73163,R,ugm-3
12-01-2016,08:00,105.05260,R,ugm-3,76.36230,R,ugm-3,237.44070,R,ugm-3,3.74194,R,ugm-3
12-01-2016,09:00,103.02698,R,ugm-3,84.93030,R,ugm-3,242.90280,R,ugm-3,3.14323,R,ugm-3
12-01-2016,10:00,43.41103,R,ugm-3,50.39055,R,ugm-3,116.95320,R,ugm-3,35.97249,R,ugm-3
12-01-2016,11:00,4.67987,R,ugm-3,21.36645,R,ugm-3,28.54215,R,ugm-3,47.24820,R,ugm-3
12-01-2016,12:00,2.44471,R,ugm-3,15.63660,R,ugm-3,19.38510,R,ugm-3,61.76692,R,ugm-3
12-01-2016,13:00,0.48894,R,ugm-3,3.10590,R,ugm-3,3.85560,R,ugm-3,59.12261,R,ugm-3
12-01-2016,14:00,10.19793,R,ugm-3,30.36285,R,ugm-3,45.99945,R,ugm-3,51.58885,R,ugm-3
12-01-2016,15:00,5.90222,R,ugm-3,19.54575,R,ugm-3,28.59570,R,ugm-3,55.77982,R,ugm-3
12-01-2016,16:00,9.46451,R,ugm-3,22.43745,R,ugm-3,36.94950,R,ugm-3,48.64519,R,ugm-3
12-01-2016,17:00,9.81376,R,ugm-3,19.33155,R,ugm-3,34.37910,R,ugm-3,48.69508,R,ugm-3
12-01-2016,18:00,4.33063,R,ugm-3,10.76355,R,ugm-3,17.40375,R,ugm-3,50.69078,R,ugm-3
12-01-2016,19:00,11.90922,R,ugm-3,31.91580,R,ugm-3,50.17635,R,ugm-3,21.95270,R,ugm-3
12-01-2016,20:00,9.32482,R,ugm-3,24.41880,R,ugm-3,38.71665,R,ugm-3,55.82971,R,ugm-3